FW1219 Weather Reports


Display with metric or nautical units.
time (UTC)temp
F
wind
direction
speed
MPH
gust
MPH
rain 1hr
in
rain 24hr
in
rain mn
in
humidity
%
barometer
mb
20190424074432 52 90 1.0 0.0 0.00 0.00 0.00 88 1016.3
20190424073828 52 113 0.0 0.0 0.00 0.00 0.00 88 1016.6
20190424073330 52 293 2.0 0.0 0.00 0.00 0.00 88 1016.6
20190424072926 52 113 0.0 0.0 0.00 0.00 0.00 89 1016.6
20190424072432 52 113 0.0 0.0 0.00 0.00 0.00 89 1016.6
20190424071929 52 90 2.0 0.0 0.00 0.00 0.00 89 1016.6
20190424071428 52 180 1.0 0.0 0.00 0.00 0.00 89 1016.6
20190424070926 52 270 2.0 0.0 0.00 0.00 0.00 89 1016.6
20190424070330 52 248 2.0 0.0 0.00 0.00 0.00 89 1016.6
20190424065930 52 113 2.0 0.0 0.00 0.00 0.00 89 1016.6
20190424065427 52 113 2.0 0.0 0.00 0.00 0.00 89 1016.6
20190424064925 52 203 2.0 0.0 0.00 0.00 0.00 89 1016.9
20190424064432 52 203 0.0 0.0 0.00 0.00 0.00 90 1016.9
20190424063933 52 158 0.0 0.0 0.00 0.00 0.00 90 1016.9
20190424063424 52 180 0.0 0.0 0.00 0.00 0.00 90 1016.6
20190424062928 52 225 1.0 0.0 0.00 0.00 0.00 90 1016.6
20190424062432 52 225 2.0 0.0 0.00 0.00 0.00 90 1016.6
20190424061927 52 225 2.0 0.0 0.00 0.00 0.00 90 1016.6
20190424061430 52 270 3.0 0.0 0.00 0.00 0.00 90 1016.9
20190424061104 52 203 2.0 0.0 0.00 0.00 0.00 90 1016.9
20190424060425 52 180 1.0 0.0 0.00 0.00 0.00 90 1016.9
20190424055927 52 270 2.0 0.0 0.00 0.00 0.00 90 1016.9
20190424055428 52 248 2.0 0.0 0.00 0.00 0.00 90 1017.3
20190424054933 52 225 0.0 0.0 0.00 0.00 0.00 90 1017.3
20190424054426 52 180 0.0 0.0 0.00 0.00 0.00 90 1016.9
20190424053927 52 225 0.0 0.0 0.00 0.00 0.00 90 1016.9
20190424053425 52 180 0.0 0.0 0.00 0.00 0.00 90 1016.9
20190424052931 52 113 0.0 0.0 0.00 0.00 0.00 90 1016.9
20190424052432 52 180 2.0 0.0 0.00 0.00 0.00 90 1016.9
20190424051830 52 90 2.0 0.0 0.00 0.00 0.00 90 1016.9
20190424051429 52 180 0.0 0.0 0.00 0.00 0.00 90 1016.9
20190424050924 52 135 1.0 0.0 0.00 0.00 0.00 90 1017.3
20190424050429 52 225 2.0 0.0 0.00 0.00 0.00 90 1017.3
20190424045927 52 180 0.0 0.0 0.00 0.00 0.00 89 1017.6
20190424045432 52 158 1.0 0.0 0.00 0.00 0.00 89 1017.3
20190424044928 52 180 2.0 0.0 0.00 0.00 0.00 89 1017.3
20190424044425 52 158 0.0 0.0 0.00 0.00 0.00 89 1017.3
20190424043926 52 135 0.0 0.0 0.00 0.00 0.00 89 1017.3
20190424043426 52 158 0.0 0.0 0.00 0.00 0.00 89 1017.3
20190424042827 52 135 0.0 0.0 0.00 0.00 0.00 89 1016.9
20190424042328 53 180 0.0 0.0 0.00 0.00 0.00 89 1016.9
20190424041928 52 68 2.0 0.0 0.00 0.00 0.00 89 1016.9
20190424041428 52 158 1.0 0.0 0.00 0.00 0.00 90 1016.9
20190424040926 52 113 2.0 0.0 0.00 0.00 0.00 90 1017.3
20190424040330 52 113 0.0 0.0 0.00 0.00 0.00 90 1017.3
20190424035927 52 113 0.0 0.0 0.00 0.00 0.00 90 1017.3
20190424035328 52 90 1.0 0.0 0.00 0.00 0.00 90 1017.3
20190424034934 52 293 1.0 0.0 0.00 0.00 0.00 90 1017.6
20190424034427 52 270 1.0 0.0 0.00 0.00 0.00 90 1017.6
20190424033931 52 248 1.0 0.0 0.00 0.00 0.00 90 1017.6
20190424033329 52 248 0.0 0.0 0.00 0.00 0.00 89 1017.6
20190424032924 52 225 0.0 0.0 0.00 0.00 0.00 89 1017.6
20190424032433 52 158 0.0 0.0 0.00 0.00 0.00 89 1017.6
20190424031931 52 135 0.0 0.0 0.00 0.00 0.00 89 1017.6
20190424031328 52 180 0.0 0.0 0.00 0.00 0.00 89 1017.6
20190424030934 52 135 0.0 0.0 0.00 0.00 0.00 89 1017.6
20190424030328 52 113 1.0 0.0 0.00 0.00 0.00 88 1017.6
20190424025830 53 113 0.0 0.0 0.00 0.00 0.00 88 1017.6
20190424025431 52 113 0.0 0.0 0.00 0.00 0.00 88 1017.6
20190424024926 52 113 0.0 0.0 0.00 0.00 0.00 88 1017.6
20190424024434 52 135 0.0 0.0 0.00 0.00 0.00 87 1017.6
20190424023925 52 135 0.0 0.0 0.00 0.00 0.00 87 1017.6
20190424023330 52 135 0.0 0.0 0.00 0.00 0.00 87 1017.9
20190424022829 52 135 0.0 0.0 0.00 0.00 0.00 87 1017.6
20190424022433 53 113 0.0 0.0 0.00 0.00 0.00 87 1017.6
20190424021934 53 113 0.0 0.0 0.00 0.00 0.00 87 1017.6
20190424021433 53 113 0.0 0.0 0.00 0.00 0.00 87 1017.6
20190424020924 53 113 0.0 0.0 0.00 0.00 0.00 86 1017.6
20190424020434 53 113 0.0 0.0 0.00 0.00 0.00 85 1017.6
20190424015927 53 135 0.0 0.0 0.00 0.00 0.00 85 1017.6
20190424015433 53 135 0.0 0.0 0.00 0.00 0.00 85 1017.6
20190424014933 53 135 0.0 0.0 0.00 0.00 0.00 85 1017.6
20190424014427 53 135 0.0 0.0 0.00 0.00 0.00 85 1017.6
20190424013828 53 113 0.0 0.0 0.00 0.00 0.00 85 1017.3
20190424013432 54 135 0.0 0.0 0.00 0.00 0.00 85 1017.6
20190424012832 54 113 0.0 0.0 0.00 0.00 0.00 85 1017.3
20190424012433 54 113 0.0 0.0 0.00 0.00 0.00 85 1017.6
20190424011928 54 135 0.0 0.0 0.00 0.00 0.00 85 1017.6
20190424011430 54 135 0.0 0.0 0.00 0.00 0.00 84 1017.6
20190424010927 54 113 0.0 0.0 0.00 0.00 0.00 84 1017.6
20190424010425 54 113 0.0 0.0 0.00 0.00 0.00 84 1017.6
20190424005932 54 90 0.0 0.0 0.00 0.00 0.00 84 1017.6
20190424005433 55 113 0.0 0.0 0.00 0.00 0.00 84 1017.6
20190424004928 55 113 0.0 0.0 0.00 0.00 0.00 83 1017.6
20190424004427 55 113 1.0 0.0 0.00 0.00 0.00 83 1017.6
20190424003930 55 113 2.0 0.0 0.00 0.00 0.00 83 1017.6
20190424003329 55 113 3.0 0.0 0.00 0.00 0.00 83 1017.6
20190424002829 55 158 1.0 0.0 0.00 0.00 0.00 83 1017.9
20190424002427 55 113 2.0 0.0 0.00 0.00 0.00 82 1017.9
20190424001932 55 113 0.0 0.0 0.00 0.00 0.00 82 1017.9
20190424001426 55 113 3.0 0.0 0.00 0.00 0.00 82 1017.9
20190424000927 56 135 1.0 0.0 0.00 0.00 0.00 82 1018.3
20190424000431 56 90 0.0 0.0 0.00 0.00 0.00 82 1018.3
20190423235926 56 113 1.0 0.0 0.00 0.00 0.00 82 1018.3
20190423235329 56 203 0.0 0.0 0.00 0.00 0.00 82 1018.3
20190423234931 56 158 0.0 0.0 0.00 0.00 0.00 82 1017.9
20190423234328 55 113 2.0 0.0 0.00 0.00 0.00 82 1018.3
20190423233932 55 90 1.0 0.0 0.00 0.00 0.00 82 1018.3
20190423233329 55 113 2.0 0.0 0.00 0.00 0.00 82 1017.9
20190423232934 55 90 2.0 0.0 0.00 0.00 0.00 81 1017.9
20190423232435 55 90 6.0 0.0 0.00 0.00 0.00 81 1017.9
20190423231931 56 90 3.0 0.0 0.00 0.00 0.00 81 1017.9
20190423231435 56 0 4.0 0.0 0.00 0.00 0.00 81 1017.9
20190423230829 56 45 4.0 0.0 0.00 0.00 0.00 81 1017.9
20190423230432 56 113 7.0 0.0 0.00 0.00 0.00 81 1018.3
20190423225929 56 113 4.0 0.0 0.00 0.00 0.00 80 1018.3
20190423225425 56 90 4.0 0.0 0.00 0.00 0.00 80 1018.3
20190423224930 56 90 3.0 0.0 0.00 0.00 0.00 80 1017.9
20190423224434 56 90 4.0 0.0 0.00 0.00 0.00 80 1018.3
20190423223924 56 90 4.0 0.0 0.00 0.00 0.00 79 1018.3
20190423223330 56 113 6.0 0.0 0.00 0.00 0.00 79 1018.3
20190423222928 56 293 4.0 0.0 0.00 0.00 0.00 79 1018.3
20190423222427 56 113 6.0 0.0 0.00 0.00 0.00 79 1018.3
20190423221928 56 90 4.0 0.0 0.00 0.00 0.00 79 1018.3
20190423221426 56 45 4.0 0.0 0.00 0.00 0.00 79 1018.6
20190423220925 56 0 4.0 0.0 0.00 0.00 0.00 79 1018.6
20190423220331 56 90 5.0 0.0 0.00 0.00 0.00 79 1018.3
20190423215830 56 248 4.0 0.0 0.00 0.00 0.00 79 1018.3
20190423215328 55 68 4.0 0.0 0.00 0.00 0.00 79 1018.6
20190423214931 55 180 4.0 0.0 0.00 0.00 0.00 79 1018.6
20190423214428 56 45 5.0 0.0 0.00 0.00 0.00 79 1018.6
20190423213930 56 113 4.0 0.0 0.00 0.00 0.00 79 1018.6
20190423213430 55 180 4.0 0.0 0.00 0.00 0.00 78 1018.6
20190423212828 55 68 2.0 0.0 0.00 0.00 0.00 78 1019.0
20190423212327 56 90 4.0 0.0 0.00 0.00 0.00 78 1019.0
20190423211935 56 180 3.0 0.0 0.00 0.00 0.00 78 1019.0
20190423211435 55 90 3.0 0.0 0.00 0.00 0.00 78 1019.0
20190423210924 56 90 3.0 0.0 0.00 0.00 0.00 78 1019.3
20190423210430 56 23 2.0 0.0 0.00 0.00 0.00 78 1019.3
20190423205932 56 113 1.0 0.0 0.00 0.00 0.00 77 1019.3
20190423205428 55 270 3.0 0.0 0.00 0.00 0.00 78 1019.3
20190423204931 56 270 3.0 0.0 0.00 0.00 0.00 78 1019.6
20190423204430 57 270 1.0 0.0 0.00 0.00 0.00 77 1019.6
20190423203933 57 203 2.0 0.0 0.00 0.00 0.00 76 1020.0
20190423203329 56 113 2.0 0.0 0.00 0.00 0.00 77 1019.6
20190423202926 57 203 1.0 0.0 0.00 0.00 0.00 76 1020.0
20190423202432 57 113 1.0 0.0 0.00 0.00 0.00 76 1020.0
20190423201829 56 180 1.0 0.0 0.00 0.00 0.00 78 1020.0
20190423201425 56 225 2.0 0.0 0.00 0.00 0.00 77 1020.3
20190423200828 57 180 0.0 0.0 0.00 0.00 0.00 76 1020.3
20190423200429 57 113 0.0 0.0 0.00 0.00 0.00 77 1020.3
20190423195933 56 113 1.0 0.0 0.00 0.00 0.00 78 1020.7
20190423195430 56 113 0.0 0.0 0.00 0.00 0.00 78 1020.7
20190423194929 56 203 1.0 0.0 0.00 0.00 0.00 77 1020.7
20190423194432 57 293 2.0 0.0 0.00 0.00 0.00 76 1020.7
20190423193928 56 135 1.0 0.0 0.00 0.00 0.00 77 1020.7
20190423193424 55 203 2.0 0.0 0.00 0.00 0.00 78 1020.3
20190423192931 56 113 0.0 0.0 0.00 0.00 0.00 76 1020.3
20190423192428 57 180 1.0 0.0 0.00 0.00 0.00 75 1020.3
20190423191931 56 180 0.0 0.0 0.00 0.00 0.00 79 1020.3
20190423191431 57 135 1.0 0.0 0.00 0.00 0.00 75 1020.3
20190423190927 55 203 0.0 0.0 0.00 0.00 0.00 78 1020.3
20190423190330 54 68 4.0 0.0 0.00 0.00 0.00 79 1020.7
20190423185928 54 113 2.0 0.0 0.00 0.00 0.00 79 1020.7
20190423185425 55 135 2.0 0.0 0.00 0.00 0.00 79 1020.7
20190423184930 56 203 0.0 0.0 0.00 0.00 0.00 76 1020.7
20190423184428 54 158 0.0 0.0 0.00 0.00 0.00 80 1020.7
20190423183928 54 90 2.0 0.0 0.00 0.00 0.00 80 1020.7
20190423183329 54 45 1.0 0.0 0.00 0.00 0.00 80 1020.7
20190423182932 55 113 2.0 0.0 0.00 0.00 0.00 79 1020.7
20190423182429 55 113 1.0 0.0 0.00 0.00 0.00 78 1020.7
20190423181927 55 158 2.0 0.0 0.00 0.00 0.00 77 1020.7
20190423181623 53 270 2.0 0.0 0.00 0.00 0.00 80 1021.0
20190423181123 54 180 1.0 0.0 0.00 0.00 0.00 80 1021.0
20190423180424 55 180 1.0 0.0 0.00 0.00 0.00 79 1021.0
20190423175927 54 203 2.0 0.0 0.00 0.00 0.00 81 1021.0
20190423175429 54 90 5.0 0.0 0.00 0.00 0.00 80 1021.0
20190423174933 53 158 3.0 0.0 0.00 0.00 0.00 80 1021.0
20190423174426 53 90 3.0 0.0 0.00 0.00 0.00 80 1021.3
20190423173928 53 135 5.0 0.0 0.00 0.00 0.00 81 1021.3
20190423173430 53 113 2.0 0.0 0.00 0.00 0.00 81 1021.3
20190423172829 52 45 2.0 0.0 0.00 0.00 0.00 82 1021.0
20190423172329 52 23 2.0 0.0 0.00 0.00 0.00 82 1021.3
20190423171932 52 113 4.0 0.0 0.00 0.00 0.00 82 1021.0
20190423171432 52 90 4.0 0.0 0.00 0.00 0.00 83 1021.3
20190423170929 52 270 3.0 0.0 0.00 0.00 0.00 83 1021.3
20190423170427 51 248 3.0 0.0 0.00 0.00 0.00 83 1021.7
20190423165932 51 315 4.0 0.0 0.00 0.00 0.00 83 1021.7
20190423165429 51 248 6.0 0.0 0.00 0.00 0.00 83 1021.7
20190423164926 51 270 2.0 0.0 0.00 0.00 0.00 83 1021.7
20190423164431 51 90 2.0 0.0 0.00 0.00 0.00 83 1021.7
20190423163926 51 23 3.0 0.0 0.00 0.00 0.00 83 1021.7
20190423163434 51 23 5.0 0.0 0.00 0.00 0.00 83 1021.3
20190423162932 52 113 2.0 0.0 0.00 0.00 0.00 83 1021.7
20190423162426 51 90 4.0 0.0 0.00 0.00 0.00 83 1021.7
20190423161931 52 225 5.0 0.0 0.00 0.00 0.00 82 1021.7
20190423161438 52 90 2.0 0.0 0.00 0.00 0.00 82 1021.7
20190423160929 52 90 4.0 0.0 0.00 0.00 0.00 82 1021.7
20190423160331 52 68 3.0 0.0 0.00 0.00 0.00 82 1021.3
20190423155932 52 180 4.0 0.0 0.00 0.00 0.00 82 1021.3
20190423155433 52 68 2.0 0.0 0.00 0.00 0.00 82 1021.3
20190423154831 52 45 2.0 0.0 0.00 0.00 0.00 82 1021.3
20190423154330 52 113 2.0 0.0 0.00 0.00 0.00 83 1021.3
20190423153931 51 158 3.0 0.0 0.00 0.00 0.00 83 1021.3
20190423153428 51 90 6.0 0.0 0.00 0.00 0.00 83 1021.3
20190423152928 51 23 4.0 0.0 0.00 0.00 0.00 83 1021.3
20190423152426 51 23 4.0 0.0 0.00 0.00 0.00 83 1021.3
20190423151932 51 113 4.0 0.0 0.00 0.00 0.00 84 1021.3
20190423151425 51 23 3.0 0.0 0.00 0.00 0.00 84 1021.3
20190423150830 51 293 3.0 0.0 0.00 0.00 0.00 84 1021.3
20190423150429 51 45 4.0 0.0 0.00 0.00 0.00 84 1021.3
20190423145829 50 293 5.0 0.0 0.00 0.00 0.00 84 1021.3
20190423145424 51 45 3.0 0.0 0.00 0.00 0.00 84 1021.3
20190423144924 50 23 2.0 0.0 0.00 0.00 0.00 84 1021.3
20190423144429 51 90 4.0 0.0 0.00 0.00 0.00 84 1021.3
20190423143829 51 45 4.0 0.0 0.00 0.00 0.00 84 1021.3
20190423143429 51 90 4.0 0.0 0.00 0.00 0.00 84 1021.0
20190423142925 51 23 3.0 0.0 0.00 0.00 0.00 84 1020.7
20190423142434 51 45 5.0 0.0 0.00 0.00 0.00 84 1020.7
20190423141924 51 90 8.0 0.0 0.00 0.00 0.00 84 1020.7
20190423141431 51 23 7.0 0.0 0.00 0.00 0.00 85 1020.7
20190423140929 51 23 7.0 0.0 0.00 0.00 0.00 85 1020.7
20190423140429 51 45 6.0 0.0 0.00 0.00 0.00 85 1020.7
20190423135934 51 23 7.0 0.0 0.00 0.00 0.00 85 1020.7
20190423135434 50 135 5.0 0.0 0.00 0.00 0.00 85 1020.7
20190423134929 50 270 7.0 0.0 0.00 0.00 0.00 85 1021.0
20190423134424 50 45 5.0 0.0 0.00 0.00 0.00 85 1021.0
20190423133929 51 315 7.0 0.0 0.00 0.00 0.00 85 1021.0
20190423133433 51 203 4.0 0.0 0.00 0.00 0.00 85 1021.0
20190423132933 51 270 7.0 0.0 0.00 0.00 0.00 85 1021.0
20190423132334 51 338 8.0 0.0 0.00 0.00 0.00 85 1021.0
20190423131927 51 23 5.0 0.0 0.00 0.00 0.00 85 1021.0
20190423131431 51 90 9.0 0.0 0.00 0.00 0.00 85 1021.0
20190423130927 51 113 4.0 0.0 0.00 0.00 0.00 85 1021.0
20190423130434 51 270 5.0 0.0 0.00 0.00 0.00 85 1021.0
20190423125934 51 45 4.0 0.0 0.00 0.00 0.00 85 1021.0
20190423125424 51 203 4.0 0.0 0.00 0.00 0.00 84 1021.0
20190423124933 51 270 6.0 0.0 0.00 0.00 0.00 84 1020.7
20190423124330 51 293 4.0 0.0 0.00 0.00 0.00 84 1020.7
20190423123930 51 270 4.0 0.0 0.00 0.00 0.00 84 1020.7
20190423123436 51 270 5.0 0.0 0.00 0.00 0.00 84 1020.7
20190423122931 51 270 7.0 0.0 0.00 0.00 0.00 84 1020.7
20190423122430 51 45 5.0 0.0 0.00 0.00 0.00 84 1020.7
20190423121931 51 315 6.0 0.0 0.00 0.00 0.00 84 1020.7
20190423121426 51 23 4.0 0.0 0.00 0.00 0.00 84 1020.3
20190423120829 51 68 3.0 0.0 0.00 0.00 0.00 84 1020.3
20190423120436 51 113 4.0 0.0 0.00 0.00 0.00 84 1020.3
20190423115935 51 338 3.0 0.0 0.00 0.00 0.00 84 1020.7
20190423115434 51 270 8.0 0.0 0.00 0.00 0.00 84 1020.3
20190423114932 51 225 4.0 0.0 0.00 0.00 0.00 84 1020.3
20190423114328 52 270 7.0 0.0 0.00 0.00 0.00 84 1020.3
20190423113932 52 270 4.0 0.0 0.00 0.00 0.00 84 1020.3
20190423113429 52 113 4.0 0.0 0.00 0.00 0.00 84 1020.3
20190423112933 52 23 6.0 0.0 0.00 0.00 0.00 84 1020.3
20190423112428 52 248 6.0 0.0 0.00 0.00 0.00 84 1020.3
20190423111931 52 248 8.0 0.0 0.00 0.00 0.00 84 1020.3
20190423111430 52 293 7.0 0.0 0.00 0.00 0.00 84 1020.3
20190423110931 52 270 5.0 0.0 0.00 0.00 0.00 84 1020.3
20190423110430 52 315 5.0 0.0 0.00 0.00 0.00 84 1020.3
20190423105930 52 270 4.0 0.0 0.00 0.00 0.00 84 1020.3
20190423105424 52 270 4.0 0.0 0.00 0.00 0.00 84 1020.3
20190423104929 52 248 5.0 0.0 0.00 0.00 0.00 84 1020.3
20190423104428 52 270 4.0 0.0 0.00 0.00 0.00 84 1020.3
20190423103828 52 270 6.0 0.0 0.00 0.00 0.00 84 1020.3
20190423103350 52 270 5.0 0.0 0.00 0.00 0.00 84 1020.3
20190423102927 52 270 2.0 0.0 0.00 0.00 0.00 83 1020.3
20190423102433 52 293 4.0 0.0 0.00 0.01 0.00 83 1020.0
20190423101932 52 270 5.0 0.0 0.00 0.02 0.00 83 1020.0
20190423101426 52 270 5.0 0.0 0.00 0.02 0.00 83 1020.0
20190423100927 52 248 5.0 0.0 0.00 0.02 0.00 83 1020.0
20190423100429 52 248 5.0 0.0 0.00 0.02 0.00 83 1020.0
20190423095930 52 23 6.0 0.0 0.00 0.02 0.00 83 1020.0
20190423095430 52 338 4.0 0.0 0.00 0.02 0.00 83 1020.0
20190423094929 53 68 6.0 0.0 0.00 0.02 0.00 83 1020.0
20190423094431 53 23 4.0 0.0 0.00 0.02 0.00 83 1019.6
20190423093926 53 68 5.0 0.0 0.00 0.02 0.00 83 1019.6
20190423093424 53 270 6.0 0.0 0.00 0.02 0.00 83 1019.6
20190423092931 53 248 3.0 0.0 0.00 0.02 0.00 83 1019.6
20190423092428 53 270 4.0 0.0 0.00 0.02 0.00 83 1020.0
20190423091927 53 270 3.0 0.0 0.00 0.02 0.00 83 1020.0
20190423091431 53 270 10.0 0.0 0.00 0.02 0.00 83 1020.0
20190423090929 53 270 6.0 0.0 0.00 0.02 0.00 83 1019.6
20190423090328 53 270 7.0 0.0 0.00 0.02 0.00 83 1019.6
20190423085935 53 270 4.0 0.0 0.00 0.02 0.00 83 1020.0
20190423085427 53 0 4.0 0.0 0.00 0.02 0.00 83 1020.0
20190423084923 53 270 3.0 0.0 0.00 0.02 0.00 83 1020.0
20190423084329 53 270 6.0 0.0 0.00 0.02 0.00 83 1019.6
20190423083933 53 270 7.0 0.0 0.00 0.02 0.00 83 1019.6
20190423083427 53 270 9.0 0.0 0.00 0.02 0.00 83 1019.6
20190423082930 53 248 8.0 0.0 0.00 0.02 0.00 83 1019.6
20190423082425 53 270 5.0 0.0 0.00 0.02 0.00 83 1019.6
20190423081928 53 248 7.0 0.0 0.00 0.02 0.00 83 1019.6
20190423081433 53 270 9.0 0.0 0.00 0.02 0.00 83 1019.3
20190423080925 53 270 6.0 0.0 0.00 0.02 0.00 83 1019.3
20190423080427 53 338 5.0 0.0 0.00 0.02 0.00 83 1019.3
20190423075926 53 315 8.0 0.0 0.00 0.02 0.00 83 1019.3
20190423075433 54 270 10.0 0.0 0.00 0.02 0.00 83 1019.3
20190423074925 54 270 6.0 0.0 0.00 0.02 0.00 83 1019.3